Location: Passau
(48.5830°N, 13.4830°E)
Time: 19:32:17
(UTC+02:00)

Vanguard 3 - Pass Details

Date: 27 May 2024
Orbit: 509 x 3231 km, 33.3° (Epoch: 15 June)

Event Time Altitude Azimuth Distance (km) Brightness Sun altitude
Rises 17:05:37 0° 190° (S) 3,272 10.5 35.2°
Reaches altitude 10° 17:10:05 10° 155° (SSE) 2,831 9.8 34.5°
Maximum altitude 17:11:53 11° 139° (SE) 2,958 9.8 34.2°
Drops below altitude 10° 17:13:54 10° 124° (SE) 3,277 9.9 33.9°
Sets 17:20:49 0° 95° (E) 5,061 10.7 32.7°
